Time,TemperatureF,DewpointF,PressureIn,WindDirection,WindDirectionDegrees,WindSpeedMPH,WindSpeedGustMPH,Humidity,HourlyPrecipIn,Conditions,Clouds,dailyrainin,SoftwareType,DateUTC
2013-04-30 15:45:00,74.8,25.7,29.62,East,90,2.5,2.5,16,0.00,,OVC060,0.00,VWS V14.01,2013-04-30 19:45:00,
2013-04-30 15:46:00,74.8,25.7,29.62,SSE,158,1.6,2.5,16,0.00,,OVC060,0.00,VWS V14.01,2013-04-30 19:46:00,
2013-04-30 15:47:00,74.8,25.7,29.62,ESE,112,2.9,2.9,16,0.00,,OVC060,0.00,VWS V14.01,2013-04-30 19:47:00,
2013-04-30 15:48:00,74.7,25.5,29.62,SSE,158,2.9,2.9,16,0.00,,OVC060,0.00,VWS V14.01,2013-04-30 19:48:00,
2013-04-30 15:49:00,74.7,25.5,29.62,SSE,158,0.0,2.9,16,0.00,,OVC060,0.00,VWS V14.01,2013-04-30 19:49:00,
2013-04-30 15:50:00,74.7,25.5,29.62,ESE,112,0.0,0.0,16,0.00,,OVC060,0.00,VWS V14.01,2013-04-30 19:50:00,
2013-04-30 15:51:00,74.5,25.4,29.62,WSW,248,2.5,2.5,16,0.00,,OVC060,0.00,VWS V14.01,2013-04-30 19:51:00,
2013-04-30 15:52:00,74.5,25.4,29.62,WSW,248,2.5,2.5,16,0.00,,OVC060,0.00,VWS V14.01,2013-04-30 19:52:00,
2013-04-30 15:54:00,74.8,25.7,29.62,SSW,202,2.5,2.5,16,0.00,,OVC060,0.00,VWS V14.01,2013-04-30 19:54:00,
2013-04-30 15:55:00,75.4,24.6,29.62,WNW,292,5.4,5.4,15,0.00,,OVC060,0.00,VWS V14.01,2013-04-30 19:55:00,
2013-04-30 15:56:00,75.4,24.6,29.62,WNW,292,3.8,5.4,15,0.00,,OVC060,0.00,VWS V14.01,2013-04-30 19:56:00,
2013-04-30 15:57:00,75.4,24.6,29.62,WNW,292,2.7,3.8,15,0.00,,OVC060,0.00,VWS V14.01,2013-04-30 19:57:00,
2013-04-30 15:58:00,75.6,24.7,29.62,North,0,3.8,3.8,15,0.00,,OVC060,0.00,VWS V14.01,2013-04-30 19:58:00,
2013-04-30 15:59:00,75.6,24.7,29.62,WSW,248,3.1,3.8,15,0.00,,OVC060,0.00,VWS V14.01,2013-04-30 19:59:00,
2013-04-30 16:00:00,75.6,24.7,29.62,WSW,248,4.3,4.3,15,0.00,,OVC060,0.00,VWS V14.01,2013-04-30 20:00:00,
2013-04-30 16:01:00,75.6,24.7,29.62,WSW,248,4.3,4.3,15,0.00,,OVC060,0.00,VWS V14.01,2013-04-30 20:01:00,
2013-04-30 16:02:00,75.6,24.7,29.62,West,270,0.0,4.3,15,0.00,,OVC060,0.00,VWS V14.01,2013-04-30 20:02:00,
2013-04-30 16:03:00,75.7,24.9,29.62,SSE,158,2.7,2.7,15,0.00,,OVC060,0.00,VWS V14.01,2013-04-30 20:03:00,
2013-04-30 16:04:00,76.1,25.1,29.62,WSW,248,2.5,2.7,15,0.00,,OVC060,0.00,VWS V14.01,2013-04-30 20:04:00,
2013-04-30 16:05:00,76.1,25.1,29.62,WNW,292,1.6,2.5,15,0.00,,OVC060,0.00,VWS V14.01,2013-04-30 20:05:00,
2013-04-30 16:06:00,76.1,25.1,29.62,SSW,202,1.1,1.6,15,0.00,,OVC060,0.00,VWS V14.01,2013-04-30 20:06:00,
2013-04-30 16:07:00,76.1,25.1,29.62,SW,225,2.5,2.5,15,0.00,,OVC060,0.00,VWS V14.01,2013-04-30 20:07:00,
2013-04-30 16:08:00,76.1,25.1,29.62,SSW,202,1.3,2.5,15,0.00,,OVC060,0.00,VWS V14.01,2013-04-30 20:08:00,
2013-04-30 16:09:00,76.1,25.1,29.62,North,0,0.9,1.3,15,0.00,,OVC060,0.00,VWS V14.01,2013-04-30 20:09:00,
2013-04-30 16:10:00,76.5,25.4,29.62,WSW,248,2.7,2.7,15,0.00,,OVC060,0.00,VWS V14.01,2013-04-30 20:10:00,
2013-04-30 16:11:00,76.1,25.1,29.62,SSW,202,2.0,2.7,15,0.00,,OVC060,0.00,VWS V14.01,2013-04-30 20:11:00,
2013-04-30 16:13:00,76.1,25.1,29.62,ENE,68,3.1,3.1,15,0.00,,OVC060,0.00,VWS V14.01,2013-04-30 20:13:00,
2013-04-30 16:14:00,76.1,25.1,29.62,ENE,68,0.0,3.1,15,0.00,,OVC060,0.00,VWS V14.01,2013-04-30 20:14:00,
2013-04-30 16:15:00,76.3,25.3,29.62,SSW,202,2.5,2.5,15,0.00,,OVC060,0.00,VWS V14.01,2013-04-30 20:15:00,
2013-04-30 16:16:00,76.3,25.3,29.62,SSW,202,2.2,2.5,15,0.00,,OVC060,0.00,VWS V14.01,2013-04-30 20:16:00,
2013-04-30 16:17:00,76.5,25.4,29.62,West,270,1.6,2.2,15,0.00,,OVC060,0.00,VWS V14.01,2013-04-30 20:17:00,
2013-04-30 16:18:00,76.5,25.4,29.62,West,270,1.6,1.6,15,0.00,,OVC060,0.00,VWS V14.01,2013-04-30 20:18:00,
2013-04-30 16:19:00,76.5,25.4,29.62,ENE,68,2.5,2.5,15,0.00,,OVC060,0.00,VWS V14.01,2013-04-30 20:19:00,
2013-04-30 16:20:00,76.5,25.4,29.62,SSW,202,3.1,3.1,15,0.00,,OVC060,0.00,VWS V14.01,2013-04-30 20:20:00,
2013-04-30 16:21:00,76.5,25.4,29.62,SSW,202,2.2,3.1,15,0.00,,OVC060,0.00,VWS V14.01,2013-04-30 20:21:00,
2013-04-30 16:22:00,76.5,25.4,29.62,SSW,202,2.2,2.2,15,0.00,,OVC060,0.00,VWS V14.01,2013-04-30 20:22:00,
2013-04-30 16:23:00,76.5,25.4,29.62,SSW,202,1.3,2.2,15,0.00,,OVC060,0.00,VWS V14.01,2013-04-30 20:23:00,
2013-04-30 16:24:00,75.9,25.0,29.62,South,180,1.6,1.6,15,0.00,,OVC060,0.00,VWS V14.01,2013-04-30 20:24:00,
2013-04-30 16:25:00,75.9,25.0,29.62,East,90,2.0,2.0,15,0.00,,OVC060,0.00,VWS V14.01,2013-04-30 20:25:00,
2013-04-30 16:26:00,75.9,25.0,29.62,ENE,68,1.3,2.0,15,0.00,,OVC060,0.00,VWS V14.01,2013-04-30 20:26:00,
2013-04-30 16:27:00,76.1,25.1,29.62,SSW,202,4.9,4.9,15,0.00,,OVC060,0.00,VWS V14.01,2013-04-30 20:27:00,
2013-04-30 16:28:00,76.1,25.1,29.62,SSW,202,2.0,4.9,15,0.00,,OVC060,0.00,VWS V14.01,2013-04-30 20:28:00,
2013-04-30 16:29:00,75.6,24.7,29.62,SW,225,3.8,3.8,15,0.00,,OVC060,0.00,VWS V14.01,2013-04-30 20:29:00,
2013-04-30 16:30:00,75.2,24.4,29.62,SSE,158,1.3,1.3,15,0.00,,OVC060,0.00,VWS V14.01,2013-04-30 20:30:00,
2013-04-30 16:31:00,75.2,24.4,29.62,SSE,158,1.6,1.6,15,0.00,,OVC060,0.00,VWS V14.01,2013-04-30 20:31:00,
2013-04-30 16:32:00,75.2,24.4,29.62,SSE,158,1.6,1.6,15,0.00,,OVC060,0.00,VWS V14.01,2013-04-30 20:32:00,
2013-04-30 16:33:00,75.7,24.9,29.62,SSE,158,0.0,1.6,15,0.00,,OVC060,0.00,VWS V14.01,2013-04-30 20:33:00,
2013-04-30 16:34:00,75.9,25.0,29.62,WSW,248,2.9,2.9,15,0.00,,OVC060,0.00,VWS V14.01,2013-04-30 20:34:00,
2013-04-30 16:35:00,75.9,25.0,29.62,WSW,248,2.9,2.9,15,0.00,,OVC060,0.00,VWS V14.01,2013-04-30 20:35:00,
2013-04-30 16:36:00,75.7,24.9,29.62,WSW,248,2.5,2.9,15,0.00,,OVC060,0.00,VWS V14.01,2013-04-30 20:36:00,
2013-04-30 16:37:00,75.7,24.9,29.62,SW,225,2.5,2.5,15,0.00,,OVC060,0.00,VWS V14.01,2013-04-30 20:37:00,
2013-04-30 16:38:00,75.7,24.9,29.62,SW,225,0.9,2.5,15,0.00,,OVC060,0.00,VWS V14.01,2013-04-30 20:38:00,
2013-04-30 16:39:00,75.7,24.9,29.62,SSW,202,2.7,2.7,15,0.00,,OVC060,0.00,VWS V14.01,2013-04-30 20:39:00,
2013-04-30 16:40:00,75.6,24.7,29.62,South,180,3.1,3.1,15,0.00,,OVC060,0.00,VWS V14.01,2013-04-30 20:40:00,
2013-04-30 16:41:00,75.0,25.8,29.62,West,270,3.6,3.6,16,0.00,,OVC060,0.00,VWS V14.01,2013-04-30 20:41:00,
2013-04-30 16:42:00,75.0,25.8,29.62,SSW,202,2.7,3.6,16,0.00,,OVC060,0.00,VWS V14.01,2013-04-30 20:42:00,
2013-04-30 16:44:00,74.7,25.5,29.62,SSW,202,2.9,2.9,16,0.00,,OVC060,0.00,VWS V14.01,2013-04-30 20:44:00,
2013-04-30 16:45:00,74.5,25.4,29.62,SSW,202,1.1,2.9,16,0.00,,OVC060,0.00,VWS V14.01,2013-04-30 20:45:00,
2013-04-30 16:46:00,74.5,25.4,29.62,WSW,248,1.6,1.6,16,0.00,,OVC060,0.00,VWS V14.01,2013-04-30 20:46:00,
2013-04-30 16:47:00,73.9,25.0,29.62,NNE,22,2.9,2.9,16,0.00,,OVC060,0.00,VWS V14.01,2013-04-30 20:47:00,
2013-04-30 16:48:00,73.9,25.0,29.62,SSW,202,3.1,3.1,16,0.00,,OVC060,0.00,VWS V14.01,2013-04-30 20:48:00,
2013-04-30 16:49:00,73.9,25.0,29.62,SSW,202,0.9,3.1,16,0.00,,OVC060,0.00,VWS V14.01,2013-04-30 20:49:00,
2013-04-30 16:50:00,73.8,24.8,29.62,SSW,202,2.5,2.5,16,0.00,,OVC060,0.00,VWS V14.01,2013-04-30 20:50:00,
2013-04-30 16:51:00,73.8,24.8,29.62,NNW,338,3.8,3.8,16,0.00,,OVC060,0.00,VWS V14.01,2013-04-30 20:51:00,
2013-04-30 16:52:00,73.6,24.7,29.62,South,180,1.1,3.8,16,0.00,,OVC060,0.00,VWS V14.01,2013-04-30 20:52:00,
2013-04-30 16:53:00,73.6,24.7,29.62,WSW,248,4.0,4.0,16,0.00,,OVC060,0.00,VWS V14.01,2013-04-30 20:53:00,
2013-04-30 16:54:00,73.6,24.7,29.62,SSE,158,1.3,4.0,16,0.00,,OVC060,0.00,VWS V14.01,2013-04-30 20:54:00,
2013-04-30 16:55:00,73.2,24.4,29.62,SSW,202,0.0,0.0,16,0.00,,OVC060,0.00,VWS V14.01,2013-04-30 20:55:00,
2013-04-30 16:56:00,73.2,24.4,29.62,SSW,202,0.0,0.0,16,0.00,,OVC060,0.00,VWS V14.01,2013-04-30 20:56:00,
2013-04-30 16:57:00,73.2,24.4,29.62,West,270,1.1,1.1,16,0.00,,OVC060,0.00,VWS V14.01,2013-04-30 20:57:00,
2013-04-30 16:58:00,73.2,24.4,29.62,SE,135,3.6,3.6,16,0.00,,OVC060,0.00,VWS V14.01,2013-04-30 20:58:00,
2013-04-30 16:59:00,73.2,24.4,29.62,East,90,3.4,3.6,16,0.00,,OVC060,0.00,VWS V14.01,2013-04-30 20:59:00,
2013-04-30 17:00:00,73.0,24.2,29.62,South,180,2.9,2.9,16,0.00,,OVC060,0.00,VWS V14.01,2013-04-30 21:00:00,
2013-04-30 17:01:00,73.0,24.2,29.62,South,180,2.9,2.9,16,0.00,,OVC060,0.00,VWS V14.01,2013-04-30 21:01:00,
2013-04-30 17:02:00,73.0,24.2,29.62,SSW,202,2.5,2.9,16,0.00,,OVC060,0.00,VWS V14.01,2013-04-30 21:02:00,
2013-04-30 17:03:00,73.0,24.2,29.62,NE,45,2.5,2.5,16,0.00,,OVC060,0.00,VWS V14.01,2013-04-30 21:03:00,
2013-04-30 17:04:00,73.0,24.2,29.62,SSW,202,1.6,2.5,16,0.00,,OVC060,0.00,VWS V14.01,2013-04-30 21:04:00,
2013-04-30 17:05:00,73.0,24.2,29.62,South,180,1.6,1.6,16,0.00,,OVC060,0.00,VWS V14.01,2013-04-30 21:05:00,
2013-04-30 17:06:00,73.0,24.2,29.62,ESE,112,3.1,3.1,16,0.00,,OVC060,0.00,VWS V14.01,2013-04-30 21:06:00,
2013-04-30 17:07:00,73.0,24.2,29.62,ESE,112,3.1,3.1,16,0.00,,OVC060,0.00,VWS V14.01,2013-04-30 21:07:00,
2013-04-30 17:08:00,72.9,24.1,29.62,SSW,202,2.7,3.1,16,0.00,,OVC060,0.00,VWS V14.01,2013-04-30 21:08:00,
2013-04-30 17:09:00,72.9,24.1,29.62,SSW,202,2.7,2.7,16,0.00,,OVC060,0.00,VWS V14.01,2013-04-30 21:09:00,
2013-04-30 17:10:00,72.9,24.1,29.62,SW,225,1.1,2.7,16,0.00,,OVC060,0.00,VWS V14.01,2013-04-30 21:10:00,
2013-04-30 17:11:00,72.9,24.1,29.62,SW,225,3.1,3.1,16,0.00,,OVC060,0.00,VWS V14.01,2013-04-30 21:11:00,
2013-04-30 17:12:00,72.9,24.1,29.62,WSW,248,1.6,4.9,16,0.00,,OVC060,0.00,VWS V14.01,2013-04-30 21:12:00,
2013-04-30 17:13:00,72.3,23.6,29.62,ESE,112,3.4,3.4,16,0.00,,OVC060,0.00,VWS V14.01,2013-04-30 21:13:00,
2013-04-30 17:14:00,72.3,23.6,29.62,SSE,158,1.3,3.4,16,0.00,,OVC060,0.00,VWS V14.01,2013-04-30 21:14:00,
2013-04-30 17:15:00,72.3,20.5,29.62,South,180,3.1,3.1,14,0.00,,OVC060,0.00,VWS V14.01,2013-04-30 21:15:00,
2013-04-30 17:16:00,72.3,20.5,29.62,SSW,202,2.7,3.1,14,0.00,,OVC060,0.00,VWS V14.01,2013-04-30 21:16:00,
2013-04-30 17:17:00,72.3,20.5,29.62,SSW,202,2.5,2.7,14,0.00,,OVC060,0.00,VWS V14.01,2013-04-30 21:17:00,
2013-04-30 17:18:00,72.3,20.5,29.62,SW,225,3.1,3.1,14,0.00,,OVC060,0.00,VWS V14.01,2013-04-30 21:18:00,
2013-04-30 17:19:00,72.5,20.6,29.62,SSW,202,1.1,3.1,14,0.00,,OVC060,0.00,VWS V14.01,2013-04-30 21:19:00,
2013-04-30 17:20:00,72.5,20.6,29.62,SW,225,2.9,2.9,14,0.00,,OVC060,0.00,VWS V14.01,2013-04-30 21:20:00,
2013-04-30 17:21:00,72.5,20.6,29.62,SSE,158,4.9,4.9,14,0.00,,OVC060,0.00,VWS V14.01,2013-04-30 21:21:00,
2013-04-30 17:22:00,72.1,20.4,29.62,ESE,112,2.7,4.9,14,0.00,,OVC060,0.00,VWS V14.01,2013-04-30 21:22:00,
2013-04-30 17:23:00,72.1,20.4,29.62,WSW,248,4.3,4.3,14,0.00,,OVC060,0.00,VWS V14.01,2013-04-30 21:23:00,
2013-04-30 17:24:00,72.0,20.2,29.62,East,90,2.5,4.3,14,0.00,,OVC060,0.00,VWS V14.01,2013-04-30 21:24:00,
2013-04-30 17:25:00,71.6,19.9,29.62,SSW,202,2.9,6.3,14,0.00,,OVC060,0.00,VWS V14.01,2013-04-30 21:25:00,
2013-04-30 17:26:00,71.6,19.9,29.62,SSW,202,2.9,6.3,14,0.00,,OVC060,0.00,VWS V14.01,2013-04-30 21:26:00,
2013-04-30 17:27:00,71.6,19.9,29.62,SSW,202,2.9,2.9,14,0.00,,OVC060,0.00,VWS V14.01,2013-04-30 21:27:00,
2013-04-30 17:28:00,71.6,19.9,29.62,SE,135,3.1,3.1,14,0.00,,OVC060,0.00,VWS V14.01,2013-04-30 21:28:00,
2013-04-30 17:29:00,71.6,19.9,29.65,SE,135,3.1,3.1,14,0.00,,OVC060,0.00,VWS V14.01,2013-04-30 21:29:00,
2013-04-30 17:30:00,71.6,19.9,29.65,ESE,112,1.6,1.6,14,0.00,,OVC060,0.00,VWS V14.01,2013-04-30 21:30:00,
2013-04-30 17:32:00,71.6,19.9,29.65,South,180,3.4,4.0,14,0.00,,OVC060,0.00,VWS V14.01,2013-04-30 21:32:00,
2013-04-30 17:33:00,71.2,19.6,29.65,ESE,112,4.3,4.3,14,0.00,,OVC060,0.00,VWS V14.01,2013-04-30 21:33:00,
2013-04-30 17:34:00,71.2,19.6,29.65,SSW,202,3.6,4.3,14,0.00,,OVC060,0.00,VWS V14.01,2013-04-30 21:34:00,
2013-04-30 17:35:00,71.2,19.6,29.65,South,180,2.0,3.6,14,0.00,,OVC060,0.00,VWS V14.01,2013-04-30 21:35:00,
2013-04-30 17:36:00,71.1,19.5,29.65,WSW,248,4.0,4.0,14,0.00,,OVC060,0.00,VWS V14.01,2013-04-30 21:36:00,
2013-04-30 17:37:00,71.1,19.5,29.65,North,0,1.6,4.0,14,0.00,,OVC060,0.00,VWS V14.01,2013-04-30 21:37:00,
2013-04-30 17:38:00,71.1,19.5,29.65,SSW,202,1.1,1.6,14,0.00,,OVC060,0.00,VWS V14.01,2013-04-30 21:38:00,
2013-04-30 17:39:00,71.1,19.5,29.65,WSW,248,2.9,2.9,14,0.00,,OVC060,0.00,VWS V14.01,2013-04-30 21:39:00,
2013-04-30 17:40:00,71.1,19.5,29.65,SSE,158,1.6,1.6,14,0.00,,OVC060,0.00,VWS V14.01,2013-04-30 21:40:00,
2013-04-30 17:41:00,71.1,19.5,29.65,SSE,158,1.6,1.6,14,0.00,,OVC060,0.00,VWS V14.01,2013-04-30 21:41:00,
2013-04-30 17:42:00,71.1,19.5,29.65,SSE,158,2.2,2.2,14,0.00,,OVC060,0.00,VWS V14.01,2013-04-30 21:42:00,
2013-04-30 17:43:00,71.2,19.6,29.65,SSE,158,2.2,2.2,14,0.00,,OVC060,0.00,VWS V14.01,2013-04-30 21:43:00,
2013-04-30 17:44:00,71.2,19.6,29.65,SSE,158,1.3,2.2,14,0.00,,OVC060,0.00,VWS V14.01,2013-04-30 21:44:00,
2013-04-30 17:45:00,71.2,19.6,29.65,SSE,158,3.1,3.1,14,0.00,,OVC060,0.00,VWS V14.01,2013-04-30 21:45:00,
2013-04-30 17:46:00,71.2,19.6,29.65,ESE,112,2.7,3.1,14,0.00,,OVC060,0.00,VWS V14.01,2013-04-30 21:46:00,
2013-04-30 17:47:00,71.1,19.5,29.65,SE,135,2.2,2.7,14,0.00,,OVC060,0.00,VWS V14.01,2013-04-30 21:47:00,
2013-04-30 17:48:00,71.1,19.5,29.65,SSW,202,2.9,2.9,14,0.00,,OVC060,0.00,VWS V14.01,2013-04-30 21:48:00,
2013-04-30 17:49:00,70.9,19.4,29.65,SSE,158,1.6,2.9,14,0.00,,OVC060,0.00,VWS V14.01,2013-04-30 21:49:00,
2013-04-30 17:50:00,70.7,19.2,29.65,SE,135,2.5,2.5,14,0.00,,OVC060,0.00,VWS V14.01,2013-04-30 21:50:00,
2013-04-30 17:51:00,70.7,19.2,29.65,NNW,338,4.0,4.0,14,0.00,,OVC060,0.00,VWS V14.01,2013-04-30 21:51:00,
2013-04-30 17:52:00,70.7,19.2,29.65,SSE,158,2.9,4.0,14,0.00,,OVC060,0.00,VWS V14.01,2013-04-30 21:52:00,
2013-04-30 17:53:00,70.7,19.2,29.65,NE,45,1.3,2.9,14,0.00,,OVC060,0.00,VWS V14.01,2013-04-30 21:53:00,
2013-04-30 17:54:00,70.7,19.2,29.65,ESE,112,2.7,2.7,14,0.00,,OVC060,0.00,VWS V14.01,2013-04-30 21:54:00,
2013-04-30 17:55:00,70.5,19.1,29.65,SSE,158,3.1,3.1,14,0.00,,OVC060,0.00,VWS V14.01,2013-04-30 21:55:00,
2013-04-30 17:56:00,70.5,19.1,29.65,SSE,158,3.1,3.1,14,0.00,,OVC060,0.00,VWS V14.01,2013-04-30 21:56:00,
2013-04-30 17:57:00,70.5,19.1,29.65,WSW,248,1.3,3.1,14,0.00,,OVC060,0.00,VWS V14.01,2013-04-30 21:57:00,
2013-04-30 17:58:00,70.5,19.1,29.65,WSW,248,1.3,1.3,14,0.00,,OVC060,0.00,VWS V14.01,2013-04-30 21:58:00,
2013-04-30 17:59:00,70.3,18.9,29.65,SSW,202,2.9,2.9,14,0.00,,OVC060,0.00,VWS V14.01,2013-04-30 21:59:00,
2013-04-30 18:00:00,70.3,18.9,29.65,South,180,2.7,2.9,14,0.00,,OVC060,0.00,VWS V14.01,2013-04-30 22:00:00,
2013-04-30 18:01:00,70.2,18.8,29.65,ESE,112,4.0,4.0,14,0.00,,OVC060,0.00,VWS V14.01,2013-04-30 22:01:00,
2013-04-30 18:02:00,70.2,18.8,29.65,SSW,202,2.0,4.0,14,0.00,,OVC060,0.00,VWS V14.01,2013-04-30 22:02:00,
2013-04-30 18:03:00,69.8,18.5,29.65,South,180,1.6,2.0,14,0.00,,OVC060,0.00,VWS V14.01,2013-04-30 22:03:00,
2013-04-30 18:04:00,69.8,18.5,29.65,SSE,158,2.9,2.9,14,0.00,,OVC060,0.00,VWS V14.01,2013-04-30 22:04:00,
2013-04-30 18:05:00,69.8,18.5,29.65,SSE,158,2.9,2.9,14,0.00,,OVC060,0.00,VWS V14.01,2013-04-30 22:05:00,
2013-04-30 18:06:00,69.8,18.5,29.65,East,90,2.9,2.9,14,0.00,,OVC060,0.00,VWS V14.01,2013-04-30 22:06:00,
2013-04-30 18:07:00,69.8,18.5,29.65,South,180,1.6,2.9,14,0.00,,OVC060,0.00,VWS V14.01,2013-04-30 22:07:00,
2013-04-30 18:08:00,69.8,18.5,29.65,SSE,158,2.0,2.0,14,0.00,,OVC060,0.00,VWS V14.01,2013-04-30 22:08:00,
2013-04-30 18:09:00,69.8,18.5,29.65,ESE,112,2.0,2.0,14,0.00,,OVC060,0.00,VWS V14.01,2013-04-30 22:09:00,
2013-04-30 18:10:00,69.4,19.8,29.65,ESE,112,2.0,2.0,15,0.00,,OVC060,0.00,VWS V14.01,2013-04-30 22:10:00,
2013-04-30 18:11:00,69.4,19.8,29.65,ESE,112,2.0,2.0,15,0.00,,OVC060,0.00,VWS V14.01,2013-04-30 22:11:00,
2013-04-30 18:12:00,69.3,19.7,29.65,SSW,202,2.7,2.7,15,0.00,,OVC060,0.00,VWS V14.01,2013-04-30 22:12:00,
2013-04-30 18:13:00,69.3,19.7,29.65,SSW,202,2.7,2.7,15,0.00,,OVC060,0.00,VWS V14.01,2013-04-30 22:13:00,
2013-04-30 18:14:00,69.3,19.7,29.65,SSW,202,2.7,2.7,15,0.00,,OVC060,0.00,VWS V14.01,2013-04-30 22:14:00,
2013-04-30 18:15:00,69.3,19.7,29.65,ESE,112,2.5,2.7,15,0.00,,OVC060,0.00,VWS V14.01,2013-04-30 22:15:00,
2013-04-30 18:16:00,69.3,19.7,29.65,ESE,112,2.5,2.5,15,0.00,,OVC060,0.00,VWS V14.01,2013-04-30 22:16:00,
2013-04-30 18:17:00,68.5,19.1,29.65,ESE,112,3.4,3.4,15,0.00,,OVC060,0.00,VWS V14.01,2013-04-30 22:17:00,
2013-04-30 18:18:00,68.5,19.1,29.65,ESE,112,3.4,3.4,15,0.00,,OVC060,0.00,VWS V14.01,2013-04-30 22:18:00,
2013-04-30 18:19:00,68.2,18.8,29.65,East,90,2.7,3.4,15,0.00,,OVC060,0.00,VWS V14.01,2013-04-30 22:19:00,
2013-04-30 18:20:00,68.0,18.7,29.65,ENE,68,3.6,3.6,15,0.00,,OVC060,0.00,VWS V14.01,2013-04-30 22:20:00,
2013-04-30 18:21:00,68.0,18.7,29.65,SE,135,2.0,3.6,15,0.00,,OVC060,0.00,VWS V14.01,2013-04-30 22:21:00,
2013-04-30 18:22:00,67.8,18.5,29.65,East,90,2.5,2.5,15,0.00,,OVC060,0.00,VWS V14.01,2013-04-30 22:22:00,
2013-04-30 18:23:00,67.8,18.5,29.65,East,90,2.5,2.5,15,0.00,,OVC060,0.00,VWS V14.01,2013-04-30 22:23:00,
2013-04-30 18:24:00,67.6,18.4,29.65,ESE,112,1.1,2.5,15,0.00,,OVC060,0.00,VWS V14.01,2013-04-30 22:24:00,
2013-04-30 18:25:00,67.5,18.2,29.65,SSE,158,2.2,2.2,15,0.00,,OVC060,0.00,VWS V14.01,2013-04-30 22:25:00,
2013-04-30 18:26:00,67.5,18.2,29.65,ESE,112,2.5,2.5,15,0.00,,OVC060,0.00,VWS V14.01,2013-04-30 22:26:00,
2013-04-30 18:27:00,67.3,18.1,29.65,East,90,3.4,3.4,15,0.00,,OVC060,0.00,VWS V14.01,2013-04-30 22:27:00,
2013-04-30 18:28:00,67.3,18.1,29.65,SSE,158,2.5,3.4,15,0.00,,OVC060,0.00,VWS V14.01,2013-04-30 22:28:00,
2013-04-30 18:29:00,67.1,17.9,29.65,SSE,158,2.5,2.5,15,0.00,,OVC060,0.00,VWS V14.01,2013-04-30 22:29:00,
2013-04-30 18:30:00,67.1,17.9,29.65,ESE,112,1.1,2.5,15,0.00,,OVC060,0.00,VWS V14.01,2013-04-30 22:30:00,
2013-04-30 18:31:00,67.1,17.9,29.65,ENE,68,2.7,2.7,15,0.00,,OVC060,0.00,VWS V14.01,2013-04-30 22:31:00,
2013-04-30 18:32:00,67.1,17.9,29.65,SSW,202,1.3,2.7,15,0.00,,OVC060,0.00,VWS V14.01,2013-04-30 22:32:00,
2013-04-30 18:33:00,66.9,17.8,29.65,SSE,158,2.5,2.5,15,0.00,,OVC060,0.00,VWS V14.01,2013-04-30 22:33:00,
2013-04-30 18:34:00,66.9,17.8,29.65,ESE,112,0.0,2.5,15,0.00,,OVC060,0.00,VWS V14.01,2013-04-30 22:34:00,
2013-04-30 18:35:00,66.9,17.8,29.65,ESE,112,0.0,0.0,15,0.00,,OVC060,0.00,VWS V14.01,2013-04-30 22:35:00,
2013-04-30 18:36:00,66.9,17.8,29.65,SSE,158,0.9,1.6,15,0.00,,OVC060,0.00,VWS V14.01,2013-04-30 22:36:00,
2013-04-30 18:37:00,66.9,17.8,29.65,SSE,158,0.0,0.9,15,0.00,,OVC060,0.00,VWS V14.01,2013-04-30 22:37:00,
2013-04-30 18:38:00,66.7,17.6,29.65,SSE,158,0.0,0.0,15,0.00,,OVC060,0.00,VWS V14.01,2013-04-30 22:38:00,
2013-04-30 18:39:00,66.7,17.6,29.65,SSW,202,2.0,2.0,15,0.00,,OVC060,0.00,VWS V14.01,2013-04-30 22:39:00,
2013-04-30 18:40:00,66.6,17.5,29.65,SE,135,2.0,2.0,15,0.00,,OVC060,0.00,VWS V14.01,2013-04-30 22:40:00,
2013-04-30 18:41:00,66.6,17.5,29.65,SSE,158,0.0,2.0,15,0.00,,OVC060,0.00,VWS V14.01,2013-04-30 22:41:00,
2013-04-30 18:42:00,66.4,17.4,29.65,ENE,68,2.7,2.7,15,0.00,,OVC060,0.00,VWS V14.01,2013-04-30 22:42:00,
2013-04-30 18:43:00,66.4,17.4,29.65,South,180,0.9,2.7,15,0.00,,OVC060,0.00,VWS V14.01,2013-04-30 22:43:00,
2013-04-30 18:44:00,66.4,17.4,29.68,WSW,248,2.5,2.5,15,0.00,,OVC060,0.00,VWS V14.01,2013-04-30 22:44:00,
2013-04-30 18:45:00,66.4,17.4,29.68,SSW,202,2.0,2.5,15,0.00,,OVC060,0.00,VWS V14.01,2013-04-30 22:45:00,
2013-04-30 18:46:00,66.4,17.4,29.68,ENE,68,0.0,2.0,15,0.00,,OVC060,0.00,VWS V14.01,2013-04-30 22:46:00,
2013-04-30 18:47:00,65.8,16.9,29.68,ESE,112,2.5,2.5,15,0.00,,OVC060,0.00,VWS V14.01,2013-04-30 22:47:00,
2013-04-30 18:48:00,65.8,16.9,29.68,SE,135,2.0,2.5,15,0.00,,OVC060,0.00,VWS V14.01,2013-04-30 22:48:00,
2013-04-30 18:49:00,65.8,16.9,29.68,ESE,112,1.1,2.0,15,0.00,,OVC060,0.00,VWS V14.01,2013-04-30 22:49:00,
2013-04-30 18:50:00,65.8,16.9,29.68,ENE,68,0.0,1.1,15,0.00,,OVC060,0.00,VWS V14.01,2013-04-30 22:50:00,
2013-04-30 18:51:00,65.8,16.9,29.68,ESE,112,0.0,0.0,15,0.00,,OVC060,0.00,VWS V14.01,2013-04-30 22:51:00,
2013-04-30 18:52:00,65.5,16.6,29.68,ESE,112,0.0,0.0,15,0.00,,OVC060,0.00,VWS V14.01,2013-04-30 22:52:00,
2013-04-30 18:53:00,65.5,16.6,29.68,ESE,112,0.0,0.0,15,0.00,,OVC060,0.00,VWS V14.01,2013-04-30 22:53:00,
2013-04-30 18:54:00,65.3,16.5,29.68,ESE,112,0.0,0.0,15,0.00,,OVC060,0.00,VWS V14.01,2013-04-30 22:54:00,
2013-04-30 18:55:00,65.1,16.4,29.68,SSE,158,1.1,1.1,15,0.00,,OVC060,0.00,VWS V14.01,2013-04-30 22:55:00,
2013-04-30 18:56:00,65.1,16.4,29.68,SSE,158,1.3,1.3,15,0.00,,OVC060,0.00,VWS V14.01,2013-04-30 22:56:00,
2013-04-30 18:57:00,64.9,16.2,29.68,WNW,292,0.0,1.3,15,0.00,,OVC060,0.00,VWS V14.01,2013-04-30 22:57:00,
2013-04-30 18:58:00,64.9,16.2,29.68,South,180,2.0,2.0,15,0.00,,OVC060,0.00,VWS V14.01,2013-04-30 22:58:00,
2013-04-30 18:59:00,64.8,16.1,29.68,SSW,202,1.3,2.0,15,0.00,,OVC060,0.00,VWS V14.01,2013-04-30 22:59:00,
2013-04-30 19:00:00,64.8,16.1,29.68,South,180,0.0,0.0,15,0.00,,OVC060,0.00,VWS V14.01,2013-04-30 23:00:00,
2013-04-30 19:01:00,64.8,16.1,29.68,ESE,112,0.0,0.0,15,0.00,,OVC060,0.00,VWS V14.01,2013-04-30 23:01:00,
2013-04-30 19:02:00,64.8,16.1,29.68,ESE,112,0.0,0.0,15,0.00,,OVC060,0.00,VWS V14.01,2013-04-30 23:02:00,
2013-04-30 19:03:00,64.8,16.1,29.68,ESE,112,0.0,0.0,15,0.00,,OVC060,0.00,VWS V14.01,2013-04-30 23:03:00,
2013-04-30 19:04:00,64.8,16.1,29.68,SW,225,2.7,2.7,15,0.00,,OVC060,0.00,VWS V14.01,2013-04-30 23:04:00,
2013-04-30 19:05:00,64.2,17.1,29.68,SSE,158,0.0,2.7,16,0.00,,OVC060,0.00,VWS V14.01,2013-04-30 23:05:00,
2013-04-30 19:06:00,64.0,17.0,29.68,South,180,0.0,0.0,16,0.00,,OVC060,0.00,VWS V14.01,2013-04-30 23:06:00,
2013-04-30 19:07:00,64.0,17.0,29.68,South,180,0.0,0.0,16,0.00,,OVC060,0.00,VWS V14.01,2013-04-30 23:07:00,
2013-04-30 19:08:00,63.9,16.8,29.68,WSW,248,0.0,0.0,16,0.00,,OVC060,0.00,VWS V14.01,2013-04-30 23:08:00,
2013-04-30 19:09:00,63.9,16.8,29.68,SSE,158,0.0,0.0,16,0.00,,OVC060,0.00,VWS V14.01,2013-04-30 23:09:00,
2013-04-30 19:10:00,63.5,16.5,29.68,ESE,112,0.0,0.0,16,0.00,,OVC060,0.00,VWS V14.01,2013-04-30 23:10:00,
2013-04-30 19:11:00,63.5,16.5,29.68,ESE,112,0.0,0.0,16,0.00,,OVC060,0.00,VWS V14.01,2013-04-30 23:11:00,
2013-04-30 19:12:00,63.5,16.5,29.68,ESE,112,0.0,0.0,16,0.00,,OVC060,0.00,VWS V14.01,2013-04-30 23:12:00,
2013-04-30 19:13:00,63.1,16.2,29.68,SSE,158,0.0,0.0,16,0.00,,OVC060,0.00,VWS V14.01,2013-04-30 23:13:00,
2013-04-30 19:14:00,63.1,16.2,29.68,SSW,202,0.0,0.0,16,0.00,,OVC060,0.00,VWS V14.01,2013-04-30 23:14:00,
2013-04-30 19:15:00,62.8,15.9,29.68,SSW,202,0.0,0.0,16,0.00,,OVC060,0.00,VWS V14.01,2013-04-30 23:15:00,
2013-04-30 19:16:00,62.8,15.9,29.68,SSW,202,0.0,0.0,16,0.00,,OVC060,0.00,VWS V14.01,2013-04-30 23:16:00,
2013-04-30 19:17:00,62.8,15.9,29.68,SSW,202,0.0,0.0,16,0.00,,OVC060,0.00,VWS V14.01,2013-04-30 23:17:00,
2013-04-30 19:18:00,62.8,15.9,29.68,SSW,202,0.0,0.0,16,0.00,,OVC060,0.00,VWS V14.01,2013-04-30 23:18:00,
2013-04-30 19:19:00,62.4,15.7,29.68,SSW,202,0.0,0.0,16,0.00,,OVC060,0.00,VWS V14.01,2013-04-30 23:19:00,
2013-04-30 19:20:00,62.2,15.5,29.68,South,180,0.0,0.0,16,0.00,,OVC060,0.00,VWS V14.01,2013-04-30 23:20:00,
2013-04-30 19:21:00,62.2,15.5,29.68,South,180,0.0,0.0,16,0.00,,OVC060,0.00,VWS V14.01,2013-04-30 23:21:00,
2013-04-30 19:22:00,62.1,15.4,29.68,South,180,0.0,0.0,16,0.00,,OVC060,0.00,VWS V14.01,2013-04-30 23:22:00,
2013-04-30 19:23:00,62.1,15.4,29.68,South,180,0.0,0.0,16,0.00,,OVC060,0.00,VWS V14.01,2013-04-30 23:23:00,
2013-04-30 19:24:00,61.7,15.1,29.68,South,180,0.0,0.0,16,0.00,,OVC060,0.00,VWS V14.01,2013-04-30 23:24:00,
2013-04-30 19:25:00,61.7,15.1,29.68,SSE,158,0.0,0.0,16,0.00,,OVC060,0.00,VWS V14.01,2013-04-30 23:25:00,
2013-04-30 19:26:00,61.7,15.1,29.68,SSE,158,0.0,0.0,16,0.00,,OVC060,0.00,VWS V14.01,2013-04-30 23:26:00,
2013-04-30 19:27:00,61.7,15.1,29.68,South,180,0.0,0.0,16,0.00,,OVC060,0.00,VWS V14.01,2013-04-30 23:27:00,
2013-04-30 19:28:00,61.3,14.8,29.68,SSE,158,0.0,0.0,16,0.00,,OVC060,0.00,VWS V14.01,2013-04-30 23:28:00,
2013-04-30 19:29:00,61.0,14.5,29.68,SSE,158,0.0,0.0,16,0.00,,OVC060,0.00,VWS V14.01,2013-04-30 23:29:00,
2013-04-30 19:30:00,61.0,14.5,29.68,SSW,202,0.0,0.0,16,0.00,,OVC060,0.00,VWS V14.01,2013-04-30 23:30:00,
2013-04-30 19:31:00,60.6,15.6,29.68,SSE,158,0.0,0.0,17,0.00,,OVC060,0.00,VWS V14.01,2013-04-30 23:31:00,
2013-04-30 19:32:00,60.6,15.6,29.68,SSW,202,0.0,0.0,17,0.00,,OVC060,0.00,VWS V14.01,2013-04-30 23:32:00,
2013-04-30 19:33:00,60.4,15.4,29.68,SSW,202,0.0,0.0,17,0.00,,OVC060,0.00,VWS V14.01,2013-04-30 23:33:00,
2013-04-30 19:34:00,60.4,15.4,29.68,SSE,158,2.2,2.2,17,0.00,,OVC060,0.00,VWS V14.01,2013-04-30 23:34:00,
2013-04-30 19:35:00,60.3,15.3,29.68,SSE,158,2.2,2.2,17,0.00,,OVC060,0.00,VWS V14.01,2013-04-30 23:35:00,
2013-04-30 19:36:00,59.9,15.0,29.68,WSW,248,0.0,2.2,17,0.00,,OVC060,0.00,VWS V14.01,2013-04-30 23:36:00,
2013-04-30 19:37:00,59.9,15.0,29.68,WSW,248,0.0,0.0,17,0.00,,OVC060,0.00,VWS V14.01,2013-04-30 23:37:00,
2013-04-30 19:38:00,59.7,14.9,29.68,SSW,202,0.0,0.0,17,0.00,,OVC060,0.00,VWS V14.01,2013-04-30 23:38:00,
2013-04-30 19:39:00,59.7,14.9,29.68,SSW,202,0.0,0.0,17,0.00,,OVC060,0.00,VWS V14.01,2013-04-30 23:39:00,
2013-04-30 19:40:00,59.7,14.9,29.68,SSW,202,0.0,0.0,17,0.00,,OVC060,0.00,VWS V14.01,2013-04-30 23:40:00,
2013-04-30 19:41:00,59.7,14.9,29.68,SSW,202,0.0,0.0,17,0.00,,OVC060,0.00,VWS V14.01,2013-04-30 23:41:00,
2013-04-30 19:42:00,59.2,14.4,29.68,SSW,202,0.0,0.0,17,0.00,,OVC060,0.00,VWS V14.01,2013-04-30 23:42:00,
2013-04-30 19:43:00,59.0,14.3,29.68,SSW,202,0.0,0.0,17,0.00,,OVC060,0.00,VWS V14.01,2013-04-30 23:43:00,
2013-04-30 19:44:00,59.0,14.3,29.68,SSW,202,0.0,0.0,17,0.00,,OVC060,0.00,VWS V14.01,2013-04-30 23:44:00,
2013-04-30 19:45:00,58.8,14.1,29.71,SSW,202,0.0,0.0,17,0.00,,OVC060,0.00,VWS V14.01,2013-04-30 23:45:00,
2013-04-30 19:46:00,58.8,14.1,29.71,SSW,202,0.0,0.0,17,0.00,,OVC060,0.00,VWS V14.01,2013-04-30 23:46:00,
2013-04-30 19:47:00,58.5,13.8,29.71,SSW,202,0.0,0.0,17,0.00,,OVC060,0.00,VWS V14.01,2013-04-30 23:47:00,
2013-04-30 19:48:00,58.5,13.8,29.71,SSW,202,0.0,0.0,17,0.00,,OVC060,0.00,VWS V14.01,2013-04-30 23:48:00,
2013-04-30 19:49:00,58.3,13.7,29.71,SSW,202,0.0,0.0,17,0.00,,OVC060,0.00,VWS V14.01,2013-04-30 23:49:00,
2013-04-30 19:50:00,58.1,13.5,29.71,SSW,202,0.0,0.0,17,0.00,,OVC060,0.00,VWS V14.01,2013-04-30 23:50:00,
2013-04-30 19:51:00,58.1,13.5,29.71,SSW,202,0.0,0.0,17,0.00,,OVC060,0.00,VWS V14.01,2013-04-30 23:51:00,
2013-04-30 19:52:00,57.9,13.4,29.71,SSW,202,0.0,0.0,17,0.00,,OVC060,0.00,VWS V14.01,2013-04-30 23:52:00,
2013-04-30 19:53:00,57.9,13.4,29.71,SSW,202,0.0,0.0,17,0.00,,OVC060,0.00,VWS V14.01,2013-04-30 23:53:00,
2013-04-30 19:54:00,57.7,15.8,29.71,WSW,248,0.0,0.0,19,0.00,,OVC060,0.00,VWS V14.01,2013-04-30 23:54:00,
2013-04-30 19:55:00,57.7,15.8,29.71,WSW,248,0.0,0.0,19,0.00,,OVC060,0.00,VWS V14.01,2013-04-30 23:55:00,
2013-04-30 19:56:00,57.6,13.1,29.71,WSW,248,0.0,0.0,17,0.00,,OVC060,0.00,VWS V14.01,2013-04-30 23:56:00,
2013-04-30 19:57:00,57.6,13.1,29.71,WSW,248,0.0,0.0,17,0.00,,OVC060,0.00,VWS V14.01,2013-04-30 23:57:00,
2013-04-30 19:58:00,57.6,13.1,29.71,WSW,248,0.0,0.0,17,0.00,,OVC060,0.00,VWS V14.01,2013-04-30 23:58:00,
2013-04-30 19:59:00,57.4,12.9,29.71,WSW,248,0.0,0.0,17,0.00,,OVC060,0.00,VWS V14.01,2013-04-30 23:59:00,
2013-04-30 20:00:00,57.4,12.9,29.71,WSW,248,0.0,0.0,17,0.00,,OVC060,0.00,VWS V14.01,2013-05-01 00:00:00,
2013-04-30 20:01:00,57.4,15.5,29.71,WSW,248,0.0,0.0,19,0.00,,OVC060,0.00,VWS V14.01,2013-05-01 00:01:00,
2013-04-30 20:02:00,57.4,15.5,29.71,WSW,248,0.0,0.0,19,0.00,,OVC060,0.00,VWS V14.01,2013-05-01 00:02:00,
2013-04-30 20:03:00,57.4,15.5,29.71,WSW,248,0.0,0.0,19,0.00,,OVC060,0.00,VWS V14.01,2013-05-01 00:03:00,
2013-04-30 20:04:00,57.4,15.5,29.71,WSW,248,0.0,0.0,19,0.00,,OVC060,0.00,VWS V14.01,2013-05-01 00:04:00,
2013-04-30 20:05:00,57.0,16.4,29.71,WSW,248,0.0,0.0,20,0.00,,OVC060,0.00,VWS V14.01,2013-05-01 00:05:00,
2013-04-30 20:06:00,56.8,16.2,29.71,WSW,248,0.0,0.0,20,0.00,,OVC060,0.00,VWS V14.01,2013-05-01 00:06:00,
2013-04-30 20:07:00,56.8,16.2,29.71,WSW,248,0.0,0.0,20,0.00,,OVC060,0.00,VWS V14.01,2013-05-01 00:07:00,
2013-04-30 20:08:00,56.5,15.9,29.71,WSW,248,0.0,0.0,20,0.00,,OVC060,0.00,VWS V14.01,2013-05-01 00:08:00,
2013-04-30 20:09:00,56.5,15.9,29.71,WSW,248,0.0,0.0,20,0.00,,OVC060,0.00,VWS V14.01,2013-05-01 00:09:00,
2013-04-30 20:10:00,56.3,15.8,29.71,WSW,248,0.0,0.0,20,0.00,,OVC060,0.00,VWS V14.01,2013-05-01 00:10:00,
2013-04-30 20:12:00,56.3,15.8,29.71,WSW,248,0.0,0.0,20,0.00,,OVC060,0.00,VWS V14.01,2013-05-01 00:12:00,
2013-04-30 20:13:00,55.9,15.5,29.71,WSW,248,0.0,0.0,20,0.00,,OVC060,0.00,VWS V14.01,2013-05-01 00:13:00,
2013-04-30 20:14:00,55.9,15.5,29.71,WSW,248,0.0,0.0,20,0.00,,OVC060,0.00,VWS V14.01,2013-05-01 00:14:00,
2013-04-30 20:15:00,55.8,17.5,29.71,WSW,248,0.0,0.0,22,0.00,,OVC060,0.00,VWS V14.01,2013-05-01 00:15:00,
2013-04-30 20:16:00,55.8,17.5,29.71,WSW,248,0.0,0.0,22,0.00,,OVC060,0.00,VWS V14.01,2013-05-01 00:16:00,
2013-04-30 20:17:00,55.6,17.4,29.71,WSW,248,0.0,0.0,22,0.00,,OVC060,0.00,VWS V14.01,2013-05-01 00:17:00,
2013-04-30 20:18:00,55.6,17.4,29.71,WSW,248,0.0,0.0,22,0.00,,OVC060,0.00,VWS V14.01,2013-05-01 00:18:00,
2013-04-30 20:19:00,55.2,18.1,29.71,WSW,248,0.0,0.0,23,0.00,,OVC060,0.00,VWS V14.01,2013-05-01 00:19:00,
2013-04-30 20:20:00,55.0,14.7,29.71,WSW,248,0.0,0.0,20,0.00,,OVC060,0.00,VWS V14.01,2013-05-01 00:20:00,
2013-04-30 20:21:00,55.0,14.7,29.71,WSW,248,0.0,0.0,20,0.00,,OVC060,0.00,VWS V14.01,2013-05-01 00:21:00,
2013-04-30 20:22:00,54.9,14.6,29.71,WSW,248,0.0,0.0,20,0.00,,OVC060,0.00,VWS V14.01,2013-05-01 00:22:00,
2013-04-30 20:23:00,54.9,14.6,29.71,WSW,248,0.0,0.0,20,0.00,,OVC060,0.00,VWS V14.01,2013-05-01 00:23:00,
2013-04-30 20:24:00,54.9,14.6,29.71,WSW,248,0.0,0.0,20,0.00,,OVC060,0.00,VWS V14.01,2013-05-01 00:24:00,
2013-04-30 20:25:00,54.9,14.6,29.71,WSW,248,0.0,0.0,20,0.00,,OVC060,0.00,VWS V14.01,2013-05-01 00:25:00,
2013-04-30 20:26:00,54.5,20.3,29.71,WSW,248,0.0,0.0,26,0.00,,OVC060,0.00,VWS V14.01,2013-05-01 00:26:00,
2013-04-30 20:27:00,54.5,20.3,29.71,WSW,248,0.0,0.0,26,0.00,,OVC060,0.00,VWS V14.01,2013-05-01 00:27:00,
2013-04-30 20:28:00,54.3,21.9,29.71,WSW,248,0.0,0.0,28,0.00,,OVC060,0.00,VWS V14.01,2013-05-01 00:28:00,
2013-04-30 20:29:00,54.3,24.4,29.71,WSW,248,0.0,0.0,31,0.00,,OVC060,0.00,VWS V14.01,2013-05-01 00:29:00,
2013-04-30 20:30:00,54.3,24.4,29.71,WSW,248,0.0,0.0,31,0.00,,OVC060,0.00,VWS V14.01,2013-05-01 00:30:00,
2013-04-30 20:31:00,54.0,24.0,29.71,WSW,248,0.0,0.0,31,0.00,,OVC060,0.00,VWS V14.01,2013-05-01 00:31:00,
2013-04-30 20:32:00,54.0,24.0,29.71,WSW,248,0.0,0.0,31,0.00,,OVC060,0.00,VWS V14.01,2013-05-01 00:32:00,
2013-04-30 20:33:00,53.8,26.1,29.71,WSW,248,0.0,0.0,34,0.00,,OVC060,0.00,VWS V14.01,2013-05-01 00:33:00,
2013-04-30 20:34:00,53.8,26.1,29.71,WSW,248,0.0,0.0,34,0.00,,OVC060,0.00,VWS V14.01,2013-05-01 00:34:00,
2013-04-30 20:35:00,53.8,27.5,29.71,SSW,202,0.0,0.0,36,0.00,,OVC060,0.00,VWS V14.01,2013-05-01 00:35:00,
2013-04-30 20:36:00,53.4,27.1,29.71,SSW,202,0.0,0.0,36,0.00,,OVC060,0.00,VWS V14.01,2013-05-01 00:36:00,
2013-04-30 20:37:00,53.4,27.1,29.71,SSW,202,0.0,0.0,36,0.00,,OVC060,0.00,VWS V14.01,2013-05-01 00:37:00,
2013-04-30 20:38:00,53.2,27.0,29.71,SSW,202,0.0,0.0,36,0.00,,OVC060,0.00,VWS V14.01,2013-05-01 00:38:00,
2013-04-30 20:39:00,53.2,27.0,29.71,SSW,202,0.0,0.0,36,0.00,,OVC060,0.00,VWS V14.01,2013-05-01 00:39:00,
2013-04-30 20:40:00,53.1,26.8,29.71,SSW,202,0.0,0.0,36,0.00,,OVC060,0.00,VWS V14.01,2013-05-01 00:40:00,
2013-04-30 20:41:00,53.1,26.8,29.71,SSW,202,0.0,0.0,36,0.00,,OVC060,0.00,VWS V14.01,2013-05-01 00:41:00,
2013-04-30 20:42:00,52.9,26.0,29.71,SSW,202,0.0,0.0,35,0.00,,OVC060,0.00,VWS V14.01,2013-05-01 00:42:00,
2013-04-30 20:43:00,52.5,26.4,29.71,SSW,202,0.0,0.0,36,0.00,,OVC060,0.00,VWS V14.01,2013-05-01 00:43:00,
2013-04-30 20:44:00,52.5,26.4,29.71,SSW,202,0.0,0.0,36,0.00,,OVC060,0.00,VWS V14.01,2013-05-01 00:44:00,
2013-04-30 20:45:00,52.3,26.9,29.71,SSW,202,0.0,0.0,37,0.00,,OVC060,0.00,VWS V14.01,2013-05-01 00:45:00,
2013-04-30 20:46:00,52.3,26.9,29.71,SSW,202,0.0,0.0,37,0.00,,OVC060,0.00,VWS V14.01,2013-05-01 00:46:00,
2013-04-30 20:47:00,52.2,26.7,29.71,SSW,202,0.0,0.0,37,0.00,,OVC060,0.00,VWS V14.01,2013-05-01 00:47:00,
2013-04-30 20:48:00,52.2,26.7,29.71,SSW,202,0.0,0.0,37,0.00,,OVC060,0.00,VWS V14.01,2013-05-01 00:48:00,
2013-04-30 20:49:00,52.0,25.9,29.71,SSW,202,0.0,0.0,36,0.00,,OVC060,0.00,VWS V14.01,2013-05-01 00:49:00,
2013-04-30 20:50:00,51.6,26.2,29.71,South,180,2.5,2.5,37,0.00,,OVC060,0.00,VWS V14.01,2013-05-01 00:50:00,
2013-04-30 20:51:00,51.6,26.2,29.71,South,180,0.0,2.5,37,0.00,,OVC060,0.00,VWS V14.01,2013-05-01 00:51:00,
2013-04-30 20:52:00,51.4,26.7,29.71,South,180,0.0,0.0,38,0.00,,OVC060,0.00,VWS V14.01,2013-05-01 00:52:00,
2013-04-30 20:53:00,51.4,26.7,29.71,South,180,0.0,0.0,38,0.00,,OVC060,0.00,VWS V14.01,2013-05-01 00:53:00,
2013-04-30 20:54:00,51.4,26.1,29.71,SSE,158,0.0,0.0,37,0.00,,OVC060,0.00,VWS V14.01,2013-05-01 00:54:00,
2013-04-30 20:55:00,51.4,26.0,29.71,SSE,158,0.0,0.0,37,0.00,,OVC060,0.00,VWS V14.01,2013-05-01 00:55:00,
2013-04-30 20:56:00,51.1,26.4,29.71,SSE,158,0.0,0.0,38,0.00,,OVC060,0.00,VWS V14.01,2013-05-01 00:56:00,
2013-04-30 20:57:00,51.1,26.4,29.71,SSE,158,0.0,0.0,38,0.00,,OVC060,0.00,VWS V14.01,2013-05-01 00:57:00,
2013-04-30 20:58:00,50.9,25.6,29.71,South,180,0.0,0.0,37,0.00,,OVC060,0.00,VWS V14.01,2013-05-01 00:58:00,
2013-04-30 20:59:00,50.7,26.7,29.71,South,180,0.0,0.0,39,0.00,,OVC060,0.00,VWS V14.01,2013-05-01 00:59:00,
2013-04-30 21:00:00,50.7,26.7,29.74,South,180,0.0,0.0,39,0.00,,OVC060,0.00,VWS V14.01,2013-05-01 01:00:00,
2013-04-30 21:01:00,50.7,26.7,29.74,South,180,0.0,0.0,39,0.00,,OVC060,0.00,VWS V14.01,2013-05-01 01:01:00,
2013-04-30 21:02:00,50.7,26.7,29.74,South,180,0.0,0.0,39,0.00,,OVC060,0.00,VWS V14.01,2013-05-01 01:02:00,
2013-04-30 21:03:00,50.5,26.5,29.74,South,180,0.0,0.0,39,0.00,,OVC060,0.00,VWS V14.01,2013-05-01 01:03:00,
2013-04-30 21:04:00,50.5,26.5,29.74,South,180,0.0,0.0,39,0.00,,OVC060,0.00,VWS V14.01,2013-05-01 01:04:00,
2013-04-30 21:05:00,50.2,26.2,29.74,South,180,0.0,0.0,39,0.00,,OVC060,0.00,VWS V14.01,2013-05-01 01:05:00,
2013-04-30 21:06:00,50.2,26.8,29.74,South,180,0.0,0.0,40,0.00,,OVC060,0.00,VWS V14.01,2013-05-01 01:06:00,
2013-04-30 21:07:00,50.2,26.8,29.74,South,180,0.0,0.0,40,0.00,,OVC060,0.00,VWS V14.01,2013-05-01 01:07:00,
2013-04-30 21:08:00,50.0,27.2,29.74,SSE,158,0.0,0.0,41,0.00,,OVC060,0.00,VWS V14.01,2013-05-01 01:08:00,
2013-04-30 21:09:00,50.0,27.2,29.74,ESE,112,0.0,0.0,41,0.00,,OVC060,0.00,VWS V14.01,2013-05-01 01:09:00,
2013-04-30 21:10:00,50.0,27.2,29.74,ESE,112,0.0,0.0,41,0.00,,OVC060,0.00,VWS V14.01,2013-05-01 01:10:00,
2013-04-30 21:11:00,50.0,27.2,29.74,WSW,248,0.0,0.0,41,0.00,,OVC060,0.00,VWS V14.01,2013-05-01 01:11:00,
2013-04-30 21:12:00,49.6,28.6,29.74,WSW,248,0.0,0.0,44,0.00,,OVC060,0.00,VWS V14.01,2013-05-01 01:12:00,
2013-04-30 21:13:00,49.6,28.6,29.74,WSW,248,0.0,0.0,44,0.00,,OVC060,0.00,VWS V14.01,2013-05-01 01:13:00,
2013-04-30 21:14:00,49.5,27.9,29.74,WSW,248,0.0,0.0,43,0.00,,OVC060,0.00,VWS V14.01,2013-05-01 01:14:00,
2013-04-30 21:15:00,49.5,27.9,29.74,WSW,248,0.0,0.0,43,0.00,,OVC060,0.00,VWS V14.01,2013-05-01 01:15:00,
2013-04-30 21:16:00,49.5,27.9,29.74,WSW,248,0.0,0.0,43,0.00,,OVC060,0.00,VWS V14.01,2013-05-01 01:16:00,
2013-04-30 21:17:00,49.3,28.3,29.74,WSW,248,0.0,0.0,44,0.00,,OVC060,0.00,VWS V14.01,2013-05-01 01:17:00,
2013-04-30 21:18:00,49.3,28.3,29.74,WSW,248,0.0,0.0,44,0.00,,OVC060,0.00,VWS V14.01,2013-05-01 01:18:00,
2013-04-30 21:19:00,49.3,28.9,29.74,WSW,248,0.0,0.0,45,0.00,,OVC060,0.00,VWS V14.01,2013-05-01 01:19:00,
2013-04-30 21:20:00,49.1,28.7,29.74,WSW,248,0.0,0.0,45,0.00,,OVC060,0.00,VWS V14.01,2013-05-01 01:20:00,
2013-04-30 21:21:00,49.1,28.7,29.74,WSW,248,0.0,0.0,45,0.00,,OVC060,0.00,VWS V14.01,2013-05-01 01:21:00,
2013-04-30 21:22:00,49.1,29.2,29.74,WSW,248,0.0,0.0,46,0.00,,OVC060,0.00,VWS V14.01,2013-05-01 01:22:00,
2013-04-30 21:23:00,49.1,29.2,29.74,WSW,248,0.0,0.0,46,0.00,,OVC060,0.00,VWS V14.01,2013-05-01 01:23:00,
2013-04-30 21:24:00,48.9,29.1,29.74,WSW,248,0.0,0.0,46,0.00,,OVC060,0.00,VWS V14.01,2013-05-01 01:24:00,
2013-04-30 21:25:00,48.9,28.5,29.74,WSW,248,0.0,0.0,45,0.00,,OVC060,0.00,VWS V14.01,2013-05-01 01:25:00,
2013-04-30 21:26:00,48.9,28.5,29.74,WSW,248,0.0,0.0,45,0.00,,OVC060,0.00,VWS V14.01,2013-05-01 01:26:00,
2013-04-30 21:27:00,48.9,28.5,29.74,WSW,248,0.0,0.0,45,0.00,,OVC060,0.00,VWS V14.01,2013-05-01 01:27:00,
2013-04-30 21:28:00,48.7,28.4,29.74,WSW,248,0.0,0.0,45,0.00,,OVC060,0.00,VWS V14.01,2013-05-01 01:28:00,
2013-04-30 21:29:00,48.7,28.4,29.74,WSW,248,0.0,0.0,45,0.00,,OVC060,0.00,VWS V14.01,2013-05-01 01:29:00,
2013-04-30 21:30:00,48.7,28.4,29.74,WSW,248,0.0,0.0,45,0.00,,OVC060,0.00,VWS V14.01,2013-05-01 01:30:00,
2013-04-30 21:31:00,48.7,28.4,29.74,WSW,248,0.0,0.0,45,0.00,,OVC060,0.00,VWS V14.01,2013-05-01 01:31:00,
2013-04-30 21:32:00,48.7,28.4,29.74,WSW,248,0.0,0.0,45,0.00,,OVC060,0.00,VWS V14.01,2013-05-01 01:32:00,
2013-04-30 21:33:00,48.4,28.0,29.74,WSW,248,0.0,0.0,45,0.00,,OVC060,0.00,VWS V14.01,2013-05-01 01:33:00,
2013-04-30 21:34:00,48.4,28.0,29.74,WSW,248,0.0,0.0,45,0.00,,OVC060,0.00,VWS V14.01,2013-05-01 01:34:00,
2013-04-30 21:35:00,48.4,28.6,29.74,WSW,248,0.0,0.0,46,0.00,,OVC060,0.00,VWS V14.01,2013-05-01 01:35:00,
2013-04-30 21:36:00,48.2,28.9,29.74,WSW,248,0.0,0.0,47,0.00,,OVC060,0.00,VWS V14.01,2013-05-01 01:36:00,
2013-04-30 21:37:00,48.2,28.9,29.74,WSW,248,0.0,0.0,47,0.00,,OVC060,0.00,VWS V14.01,2013-05-01 01:37:00,
2013-04-30 21:38:00,48.0,28.8,29.74,WSW,248,0.0,0.0,47,0.00,,OVC060,0.00,VWS V14.01,2013-05-01 01:38:00,
2013-04-30 21:39:00,48.0,28.8,29.74,WSW,248,0.0,0.0,47,0.00,,OVC060,0.00,VWS V14.01,2013-05-01 01:39:00,
2013-04-30 21:40:00,47.8,28.6,29.74,WSW,248,0.0,0.0,47,0.00,,OVC060,0.00,VWS V14.01,2013-05-01 01:40:00,
2013-04-30 21:41:00,47.8,28.6,29.74,WSW,248,0.0,0.0,47,0.00,,OVC060,0.00,VWS V14.01,2013-05-01 01:41:00,
2013-04-30 21:42:00,47.8,28.6,29.74,WSW,248,0.0,0.0,47,0.00,,OVC060,0.00,VWS V14.01,2013-05-01 01:42:00,
2013-04-30 21:43:00,47.8,28.6,29.74,WSW,248,0.0,0.0,47,0.00,,OVC060,0.00,VWS V14.01,2013-05-01 01:43:00,
2013-04-30 21:44:00,47.7,29.0,29.74,WSW,248,0.0,0.0,48,0.00,,OVC060,0.00,VWS V14.01,2013-05-01 01:44:00,
2013-04-30 21:45:00,47.5,29.3,29.74,West,270,0.0,0.0,49,0.00,,OVC060,0.00,VWS V14.01,2013-05-01 01:45:00,
2013-04-30 21:46:00,47.5,29.3,29.74,West,270,0.0,0.0,49,0.00,,OVC060,0.00,VWS V14.01,2013-05-01 01:46:00,
2013-04-30 21:47:00,47.5,29.3,29.74,West,270,0.0,0.0,49,0.00,,OVC060,0.00,VWS V14.01,2013-05-01 01:47:00,
2013-04-30 21:48:00,47.5,29.3,29.74,West,270,0.0,0.0,49,0.00,,OVC060,0.00,VWS V14.01,2013-05-01 01:48:00,
2013-04-30 21:49:00,47.3,29.1,29.74,West,270,0.0,0.0,49,0.00,,OVC060,0.00,VWS V14.01,2013-05-01 01:49:00,
2013-04-30 21:50:00,47.3,29.1,29.74,West,270,0.0,0.0,49,0.00,,OVC060,0.00,VWS V14.01,2013-05-01 01:50:00,
2013-04-30 21:51:00,47.3,29.6,29.74,West,270,0.0,0.0,50,0.00,,OVC060,0.00,VWS V14.01,2013-05-01 01:51:00,
2013-04-30 21:52:00,47.1,29.5,29.74,West,270,0.0,0.0,50,0.00,,OVC060,0.00,VWS V14.01,2013-05-01 01:52:00,
2013-04-30 21:53:00,47.1,29.5,29.74,West,270,0.0,0.0,50,0.00,,OVC060,0.00,VWS V14.01,2013-05-01 01:53:00,
2013-04-30 21:54:00,47.1,29.5,29.74,West,270,0.0,0.0,50,0.00,,OVC060,0.00,VWS V14.01,2013-05-01 01:54:00,
2013-04-30 21:55:00,47.1,29.5,29.74,West,270,0.0,0.0,50,0.00,,OVC060,0.00,VWS V14.01,2013-05-01 01:55:00,
2013-04-30 21:56:00,46.9,29.3,29.74,West,270,0.0,0.0,50,0.00,,OVC060,0.00,VWS V14.01,2013-05-01 01:56:00,
2013-04-30 21:57:00,46.9,29.3,29.74,West,270,0.0,0.0,50,0.00,,OVC060,0.00,VWS V14.01,2013-05-01 01:57:00,
2013-04-30 21:58:00,46.8,29.1,29.74,West,270,0.0,0.0,50,0.00,,OVC060,0.00,VWS V14.01,2013-05-01 01:58:00,
2013-04-30 21:59:00,46.8,29.1,29.74,West,270,0.0,0.0,50,0.00,,OVC060,0.00,VWS V14.01,2013-05-01 01:59:00,
2013-04-30 22:00:00,46.8,29.1,29.74,West,270,0.0,0.0,50,0.00,,OVC060,0.00,VWS V14.01,2013-05-01 02:00:00,
2013-04-30 22:01:00,46.6,29.0,29.74,West,270,0.0,0.0,50,0.00,,OVC060,0.00,VWS V14.01,2013-05-01 02:01:00,
2013-04-30 22:02:00,46.6,29.0,29.74,West,270,0.0,0.0,50,0.00,,OVC060,0.00,VWS V14.01,2013-05-01 02:02:00,
2013-04-30 22:03:00,46.4,28.8,29.74,West,270,0.0,0.0,50,0.00,,OVC060,0.00,VWS V14.01,2013-05-01 02:03:00,
2013-04-30 22:04:00,46.4,28.8,29.74,West,270,0.0,0.0,50,0.00,,OVC060,0.00,VWS V14.01,2013-05-01 02:04:00,
2013-04-30 22:05:00,46.4,29.3,29.74,West,270,0.0,0.0,51,0.00,,OVC060,0.00,VWS V14.01,2013-05-01 02:05:00,
2013-04-30 22:06:00,46.4,29.3,29.74,West,270,0.0,0.0,51,0.00,,OVC060,0.00,VWS V14.01,2013-05-01 02:06:00,
2013-04-30 22:07:00,46.4,29.3,29.74,West,270,0.0,0.0,51,0.00,,OVC060,0.00,VWS V14.01,2013-05-01 02:07:00,
2013-04-30 22:08:00,46.0,29.4,29.74,WSW,248,0.0,0.0,52,0.00,,OVC060,0.00,VWS V14.01,2013-05-01 02:08:00,
2013-04-30 22:09:00,46.0,29.4,29.74,WSW,248,0.0,0.0,52,0.00,,OVC060,0.00,VWS V14.01,2013-05-01 02:09:00,
2013-04-30 22:10:00,46.0,29.4,29.74,WSW,248,0.0,0.0,52,0.00,,OVC060,0.00,VWS V14.01,2013-05-01 02:10:00,
2013-04-30 22:11:00,46.0,29.4,29.74,WSW,248,0.0,0.0,52,0.00,,OVC060,0.00,VWS V14.01,2013-05-01 02:11:00,
2013-04-30 22:12:00,45.9,29.7,29.74,WSW,248,0.0,0.0,53,0.00,,OVC060,0.00,VWS V14.01,2013-05-01 02:12:00,
2013-04-30 22:13:00,45.9,29.7,29.74,WSW,248,0.0,0.0,53,0.00,,OVC060,0.00,VWS V14.01,2013-05-01 02:13:00,
2013-04-30 22:14:00,45.7,29.5,29.74,WSW,248,0.0,0.0,53,0.00,,OVC060,0.00,VWS V14.01,2013-05-01 02:14:00,
2013-04-30 22:15:00,45.7,29.5,29.74,WSW,248,0.0,0.0,53,0.00,,OVC060,0.00,VWS V14.01,2013-05-01 02:15:00,
2013-04-30 22:16:00,45.7,29.5,29.74,WSW,248,0.0,0.0,53,0.00,,OVC060,0.00,VWS V14.01,2013-05-01 02:16:00,
2013-04-30 22:17:00,45.3,29.7,29.74,WSW,248,0.0,0.0,54,0.00,,OVC060,0.00,VWS V14.01,2013-05-01 02:17:00,
2013-04-30 22:18:00,45.3,29.7,29.74,WSW,248,0.0,0.0,54,0.00,,OVC060,0.00,VWS V14.01,2013-05-01 02:18:00,
2013-04-30 22:19:00,45.3,30.1,29.74,WSW,248,0.0,0.0,55,0.00,,OVC060,0.00,VWS V14.01,2013-05-01 02:19:00,
2013-04-30 22:20:00,45.3,30.1,29.74,WSW,248,0.0,0.0,55,0.00,,OVC060,0.00,VWS V14.01,2013-05-01 02:20:00,
2013-04-30 22:21:00,45.3,30.1,29.74,WSW,248,0.0,0.0,55,0.00,,OVC060,0.00,VWS V14.01,2013-05-01 02:21:00,
2013-04-30 22:22:00,45.1,30.4,29.74,WSW,248,0.0,0.0,56,0.00,,OVC060,0.00,VWS V14.01,2013-05-01 02:22:00,
2013-04-30 22:23:00,45.1,30.4,29.74,WSW,248,0.0,0.0,56,0.00,,OVC060,0.00,VWS V14.01,2013-05-01 02:23:00,
2013-04-30 22:24:00,45.0,30.2,29.74,WSW,248,0.0,0.0,56,0.00,,OVC060,0.00,VWS V14.01,2013-05-01 02:24:00,
2013-04-30 22:25:00,44.8,30.1,29.74,WSW,248,0.0,0.0,56,0.00,,OVC060,0.00,VWS V14.01,2013-05-01 02:25:00,
2013-04-30 22:26:00,44.8,30.1,29.74,WSW,248,0.0,0.0,56,0.00,,OVC060,0.00,VWS V14.01,2013-05-01 02:26:00,
2013-04-30 22:27:00,44.8,30.1,29.74,WSW,248,0.0,0.0,56,0.00,,OVC060,0.00,VWS V14.01,2013-05-01 02:27:00,
2013-04-30 22:28:00,44.8,30.1,29.74,WSW,248,0.0,0.0,56,0.00,,OVC060,0.00,VWS V14.01,2013-05-01 02:28:00,
2013-04-30 22:29:00,44.6,29.9,29.74,WSW,248,0.0,0.0,56,0.00,,OVC060,0.00,VWS V14.01,2013-05-01 02:29:00,
2013-04-30 22:30:00,44.4,30.2,29.74,WSW,248,0.0,0.0,57,0.00,,OVC060,0.00,VWS V14.01,2013-05-01 02:30:00,
2013-04-30 22:31:00,44.4,30.2,29.74,WSW,248,0.0,0.0,57,0.00,,OVC060,0.00,VWS V14.01,2013-05-01 02:31:00,
2013-04-30 22:32:00,44.4,30.2,29.74,WSW,248,0.0,0.0,57,0.00,,OVC060,0.00,VWS V14.01,2013-05-01 02:32:00,
2013-04-30 22:33:00,44.2,30.0,29.74,WSW,248,0.0,0.0,57,0.00,,OVC060,0.00,VWS V14.01,2013-05-01 02:33:00,
2013-04-30 22:34:00,44.2,30.0,29.74,WSW,248,0.0,0.0,57,0.00,,OVC060,0.00,VWS V14.01,2013-05-01 02:34:00,
2013-04-30 22:35:00,44.2,30.0,29.74,WSW,248,0.0,0.0,57,0.00,,OVC060,0.00,VWS V14.01,2013-05-01 02:35:00,
2013-04-30 22:36:00,44.2,30.0,29.74,WSW,248,0.0,0.0,57,0.00,,OVC060,0.00,VWS V14.01,2013-05-01 02:36:00,
2013-04-30 22:37:00,44.1,30.2,29.74,WSW,248,0.0,0.0,58,0.00,,OVC060,0.00,VWS V14.01,2013-05-01 02:37:00,
2013-04-30 22:38:00,44.1,30.7,29.74,WSW,248,0.0,0.0,59,0.00,,OVC060,0.00,VWS V14.01,2013-05-01 02:38:00,
2013-04-30 22:39:00,44.1,30.7,29.74,WSW,248,0.0,0.0,59,0.00,,OVC060,0.00,VWS V14.01,2013-05-01 02:39:00,
2013-04-30 22:40:00,43.9,30.5,29.74,WSW,248,0.0,0.0,59,0.00,,OVC060,0.00,VWS V14.01,2013-05-01 02:40:00,
2013-04-30 22:41:00,43.9,30.5,29.74,WSW,248,0.0,0.0,59,0.00,,OVC060,0.00,VWS V14.01,2013-05-01 02:41:00,
2013-04-30 22:42:00,43.7,30.3,29.74,WSW,248,0.0,0.0,59,0.00,,OVC060,0.00,VWS V14.01,2013-05-01 02:42:00,
2013-04-30 22:43:00,43.7,30.3,29.74,WSW,248,0.0,0.0,59,0.00,,OVC060,0.00,VWS V14.01,2013-05-01 02:43:00,
2013-04-30 22:44:00,43.7,30.7,29.74,WSW,248,0.0,0.0,60,0.00,,OVC060,0.00,VWS V14.01,2013-05-01 02:44:00,
2013-04-30 22:45:00,43.7,31.1,29.74,WSW,248,0.0,0.0,61,0.00,,OVC060,0.00,VWS V14.01,2013-05-01 02:45:00,
2013-04-30 22:46:00,43.7,31.1,29.74,WSW,248,0.0,0.0,61,0.00,,OVC060,0.00,VWS V14.01,2013-05-01 02:46:00,
2013-04-30 22:47:00,43.5,31.4,29.74,WSW,248,0.0,0.0,62,0.00,,OVC060,0.00,VWS V14.01,2013-05-01 02:47:00,
2013-04-30 22:48:00,43.5,31.4,29.74,WSW,248,0.0,0.0,62,0.00,,OVC060,0.00,VWS V14.01,2013-05-01 02:48:00,
2013-04-30 22:49:00,43.5,31.4,29.74,WSW,248,0.0,0.0,62,0.00,,OVC060,0.00,VWS V14.01,2013-05-01 02:49:00,
2013-04-30 22:50:00,43.5,31.8,29.74,WSW,248,0.0,0.0,63,0.00,,OVC060,0.00,VWS V14.01,2013-05-01 02:50:00,
2013-04-30 22:51:00,43.5,31.8,29.74,WSW,248,0.0,0.0,63,0.00,,OVC060,0.00,VWS V14.01,2013-05-01 02:51:00,
2013-04-30 22:52:00,43.5,31.8,29.74,WSW,248,0.0,0.0,63,0.00,,OVC060,0.00,VWS V14.01,2013-05-01 02:52:00,
2013-04-30 22:53:00,43.5,31.8,29.74,WSW,248,0.0,0.0,63,0.00,,OVC060,0.00,VWS V14.01,2013-05-01 02:53:00,
2013-04-30 22:54:00,43.3,32.0,29.74,WSW,248,0.0,0.0,64,0.00,,OVC060,0.00,VWS V14.01,2013-05-01 02:54:00,
2013-04-30 22:55:00,43.2,31.8,29.74,WSW,248,0.0,0.0,64,0.00,,OVC060,0.00,VWS V14.01,2013-05-01 02:55:00,
2013-04-30 22:56:00,43.2,31.8,29.74,WSW,248,0.0,0.0,64,0.00,,OVC060,0.00,VWS V14.01,2013-05-01 02:56:00,
2013-04-30 22:57:00,43.2,31.8,29.74,WSW,248,0.0,0.0,64,0.00,,OVC060,0.00,VWS V14.01,2013-05-01 02:57:00,
2013-04-30 22:58:00,43.2,31.8,29.74,WSW,248,0.0,0.0,64,0.00,,OVC060,0.00,VWS V14.01,2013-05-01 02:58:00,
2013-04-30 22:59:00,43.2,31.8,29.74,WSW,248,0.0,0.0,64,0.00,,OVC060,0.00,VWS V14.01,2013-05-01 02:59:00,
2013-04-30 23:00:00,43.0,31.6,29.74,WSW,248,0.0,0.0,64,0.00,,OVC060,0.00,VWS V14.01,2013-05-01 03:00:00,
2013-04-30 23:01:00,43.0,31.6,29.74,WSW,248,0.0,0.0,64,0.00,,OVC060,0.00,VWS V14.01,2013-05-01 03:01:00,
2013-04-30 23:02:00,43.0,31.6,29.74,WSW,248,0.0,0.0,64,0.00,,OVC060,0.00,VWS V14.01,2013-05-01 03:02:00,
2013-04-30 23:03:00,42.8,31.5,29.74,WSW,248,0.0,0.0,64,0.00,,OVC060,0.00,VWS V14.01,2013-05-01 03:03:00,
2013-04-30 23:04:00,42.8,31.5,29.74,WSW,248,0.0,0.0,64,0.00,,OVC060,0.00,VWS V14.01,2013-05-01 03:04:00,
2013-04-30 23:05:00,42.8,31.5,29.74,WSW,248,0.0,0.0,64,0.00,,OVC060,0.00,VWS V14.01,2013-05-01 03:05:00,
2013-04-30 23:06:00,42.8,31.5,29.74,WSW,248,0.0,0.0,64,0.00,,OVC060,0.00,VWS V14.01,2013-05-01 03:06:00,
2013-04-30 23:07:00,42.6,31.7,29.74,WSW,248,0.0,0.0,65,0.00,,OVC060,0.00,VWS V14.01,2013-05-01 03:07:00,
2013-04-30 23:08:00,42.4,31.5,29.74,WSW,248,0.0,0.0,65,0.00,,OVC060,0.00,VWS V14.01,2013-05-01 03:08:00,
2013-04-30 23:09:00,42.4,31.5,29.74,WSW,248,0.0,0.0,65,0.00,,OVC060,0.00,VWS V14.01,2013-05-01 03:09:00,
2013-04-30 23:10:00,42.4,31.9,29.74,WSW,248,0.0,0.0,66,0.00,,OVC060,0.00,VWS V14.01,2013-05-01 03:10:00,
2013-04-30 23:11:00,42.4,31.9,29.74,WSW,248,0.0,0.0,66,0.00,,OVC060,0.00,VWS V14.01,2013-05-01 03:11:00,
2013-04-30 23:12:00,42.4,32.3,29.74,WSW,248,0.0,0.0,67,0.00,,OVC060,0.00,VWS V14.01,2013-05-01 03:12:00,
2013-04-30 23:13:00,42.4,32.3,29.74,WSW,248,0.0,0.0,67,0.00,,OVC060,0.00,VWS V14.01,2013-05-01 03:13:00,
2013-04-30 23:14:00,42.4,32.3,29.74,WSW,248,0.0,0.0,67,0.00,,OVC060,0.00,VWS V14.01,2013-05-01 03:14:00,
2013-04-30 23:15:00,42.3,32.5,29.74,WSW,248,0.0,0.0,68,0.00,,OVC060,0.00,VWS V14.01,2013-05-01 03:15:00,
2013-04-30 23:16:00,42.3,32.5,29.74,WSW,248,0.0,0.0,68,0.00,,OVC060,0.00,VWS V14.01,2013-05-01 03:16:00,
2013-04-30 23:17:00,42.1,32.7,29.74,WSW,248,0.0,0.0,69,0.00,,OVC060,0.00,VWS V14.01,2013-05-01 03:17:00,
2013-04-30 23:18:00,42.1,32.7,29.74,WSW,248,0.0,0.0,69,0.00,,OVC060,0.00,VWS V14.01,2013-05-01 03:18:00,
2013-04-30 23:19:00,42.1,32.7,29.74,WSW,248,0.0,0.0,69,0.00,,OVC060,0.00,VWS V14.01,2013-05-01 03:19:00,